Kuchera_Ratio
0.0 0.0 0.0 0.0 0.0 0.0 0.0 0.0 0.0 0.0 0.0 0.0 0.0 0.0 0.0 0.0 0.0 0.0 0.0 0.0 0.0 0.0 0.0 0.0 0.0 0.0 0.0 0.0 0.0 0.0 0.0 0.0 0.0 0.0 0.0 0.0 0.0 0.0 0.0 0.0 0.0 0.0 0.0
0.0 0.0 0.0 0.0 0.0 0.0 0.0 0.0 0.0 0.0 0.0 0.0 0.0 0.0 0.0 0.0 0.0 0.0 0.0 0.0 0.0 0.0 0.0 0.0 0.0 0.0 0.0 0.0 0.0 0.0 0.0 0.0 0.0 0.0 0.0 0.0 0.0 0.0 0.0 0.0 0.0 0.0 0.0
0.0 0.0 0.0 0.0 0.0 0.0 0.0 0.0 0.0 0.0 0.0 0.0 0.0 0.0 0.0 0.0 0.0 0.0 0.0 0.0 0.0 0.0 0.0 0.0 0.0 0.0 0.0 0.0 0.0 0.0 0.0 0.0 0.0 0.0 0.0 0.0 0.0 0.0 0.0 0.0 0.0 0.0 0.0
0.0 0.0 1.2 0.2 0.0 0.0 0.0 0.0 0.0 0.0 0.0 0.0 0.0 0.0 0.0 0.0 0.0 0.0 0.0 0.0 0.0 0.0 0.0 0.0 0.0 0.0 0.0 0.0 0.0 0.0 0.0 0.0 0.0 0.0 0.0 0.0 0.0 0.0 0.0 0.0 0.0 0.0 0.0
0.0 0.5 1.7 1.6 0.4 1.1 1.2 0.0 0.0 0.0 0.0 0.0 0.0 0.0 0.0 0.0 0.0 0.0 0.0 0.0 0.0 0.0 0.0 0.0 0.0 0.0 0.0 0.0 0.0 0.0 0.0 0.0 0.0 0.0 0.0 0.0 0.0 0.0 0.0 0.0 0.0 0.0 0.0
0.0 0.7 2.3 2.5 1.8 3.7 4.5 3.5 2.7 1.9 0.9 0.0 0.0 0.0 0.0 0.0 0.0 0.0 0.0 0.0 0.0 0.0 0.0 0.0 0.0 0.0 0.0 0.0 0.0 0.0 0.0 0.0 0.0 0.0 0.0 0.0 0.0 0.0 0.0 0.0 0.0 0.0 0.0
0.0 1.2 2.4 2.9 2.9 6.9 5.9 4.1 5.4 6.2 6.8 4.5 3.7 2.0 0.4 0.0 0.0 0.0 0.0 0.0 0.0 0.0 0.0 0.0 0.0 0.0 0.0 0.0 0.0 0.0 0.0 0.0 0.0 0.0 0.0 0.0 0.0 0.0 0.0 0.0 0.0 0.0 0.0
0.7 1.1 3.2 4.8 4.5 7.6 7.2 6.8 6.9 7.9 7.4 5.4 9.7 9.9 8.9 5.9 1.5 0.0 0.0 0.0 0.0 0.0 0.0 0.0 0.0 0.0 0.0 0.0 0.0 0.0 0.0 0.0 0.0 0.0 0.0 0.0 0.0 0.0 0.0 0.0 0.0 0.0 0.0
1.4 2.0 2.8 3.9 5.0 5.8 9.3 9.1 8.6 8.7 10.2 9.0 7.1 9.7 13.5 13.6 10.4 2.8 1.5 0.0 0.0 0.0 0.0 0.0 0.0 0.0 0.0 0.0 0.0 0.0 0.0 0.0 0.0 0.0 0.0 0.0 0.0 0.0 0.0 0.0 0.0 0.0 0.0
2.3 2.1 2.7 3.5 4.9 5.9 9.4 9.3 3.2 9.0 10.1 11.0 9.1 3.5 7.4 9.2 13.6 13.8 4.8 2.6 0.0 0.0 0.0 0.0 0.0 0.0 0.0 0.0 0.0 0.0 0.0 0.0 0.0 0.0 0.0 0.0 0.0 0.0 0.0 0.0 0.0 0.0 0.0
2.9 2.9 3.2 3.9 5.8 6.4 7.2 8.3 9.9 10.3 8.8 10.5 11.0 10.5 9.4 9.0 8.4 12.5 14.2 9.8 3.9 0.8 0.0 0.0 0.0 0.0 0.0 0.0 0.0 0.0 0.0 0.0 0.0 0.0 0.0 0.0 0.0 0.0 0.0 0.0 0.0 0.0 0.0
7.6 4.7 4.0 4.9 5.6 6.9 8.3 8.3 8.1 9.8 10.3 8.8 8.5 8.8 10.3 12.3 12.3 12.9 13.7 12.5 11.7 6.5 1.9 0.1 0.0 0.0 0.0 0.0 0.0 0.0 0.0 0.0 0.0 0.0 0.0 0.0 0.0 0.0 0.0 0.0 0.0 0.0 0.0
11.9 10.9 6.7 7.8 8.3 7.4 7.3 7.6 9.0 10.5 10.5 10.8 10.3 9.9 8.1 8.6 7.8 9.3 11.7 12.7 12.9 8.7 6.7 2.9 0.1 0.0 0.0 0.0 0.0 0.0 0.0 0.0 0.0 0.0 0.0 0.0 0.0 0.0 0.0 0.0 0.0 0.0 0.0
12.1 8.0 7.9 7.5 7.7 7.6 8.2 8.5 9.3 9.9 9.7 10.2 10.7 9.8 9.2 8.0 7.2 7.9 10.5 12.7 14.1 12.7 9.6 8.5 2.5 0.7 0.0 0.0 0.0 0.0 0.0 0.0 0.0 0.0 0.0 0.0 0.0 0.0 0.0 0.0 0.0 0.0 0.0
8.3 7.4 8.7 9.4 9.0 9.0 9.3 10.1 11.0 11.9 10.9 10.6 10.8 10.6 10.3 8.6 7.6 7.3 7.9 9.1 12.7 15.8 14.4 9.7 8.9 2.7 0.2 0.0 0.0 0.0 0.0 0.0 0.0 0.0 0.0 0.0 0.0 0.0 0.0 0.0 0.0 0.0 0.0
11.4 11.6 11.7 11.3 11.2 10.5 10.7 11.2 11.5 11.3 12.2 11.5 10.2 11.5 11.1 9.8 8.9 8.2 9.0 9.0 9.3 12.6 15.1 9.5 7.9 5.1 1.8 0.0 0.0 0.0 0.0 0.0 0.0 0.0 0.0 0.0 0.0 0.0 0.0 0.0 0.0 0.0 0.0
12.5 12.7 12.5 12.5 12.6 12.7 12.0 12.4 12.5 12.4 12.7 12.5 12.1 12.3 12.1 10.3 11.0 9.7 9.2 9.6 10.6 10.8 13.9 11.4 6.8 4.7 5.6 4.6 1.6 0.0 0.0 0.0 0.0 0.0 0.0 0.0 0.0 0.0 0.0 0.0 0.0 0.0 0.0
11.9 12.4 12.0 12.5 12.8 12.5 12.2 12.2 12.8 12.2 12.5 12.8 12.4 12.3 12.3 8.9 11.6 10.6 10.6 11.7 11.8 10.5 12.2 13.8 10.8 9.5 8.2 4.9 3.9 2.9 0.0 0.0 0.0 0.0 0.0 0.0 0.0 0.0 0.0 0.0 0.0 0.0 0.0
12.7 12.4 12.1 12.8 12.9 12.6 12.5 12.2 11.9 12.3 12.4 12.2 12.1 12.2 12.2 11.9 12.4 12.0 10.8 11.4 11.4 8.7 10.6 12.1 12.5 8.6 7.8 5.8 6.1 3.4 1.2 0.0 0.0 0.0 0.0 0.0 0.0 0.0 0.0 0.0 0.0 0.0 0.0
13.2 13.2 13.0 12.7 12.4 12.4 12.1 12.1 12.0 12.3 12.2 11.7 11.0 11.1 11.3 11.7 12.2 12.3 11.9 11.7 10.4 11.9 12.1 12.3 12.2 11.7 9.8 6.4 6.3 7.4 5.6 0.0 0.0 0.0 0.0 0.0 0.0 0.0 0.0 0.0 0.0 0.0 0.0
14.4 13.2 12.8 13.0 13.0 12.3 11.0 11.5 11.5 12.2 12.1 11.8 10.2 9.7 9.5 9.0 6.7 7.4 10.0 12.3 12.2 12.7 12.8 13.1 13.1 12.4 11.4 10.8 10.8 6.2 3.9 3.0 0.0 0.0 0.0 0.0 0.0 0.0 0.0 0.0 0.0 0.0 0.0
15.5 14.2 13.4 14.0 13.3 11.8 6.7 3.6 3.3 7.4 8.2 8.0 8.4 10.8 9.6 6.6 6.2 4.5 3.4 4.2 8.6 13.3 13.2 13.1 12.9 13.0 11.9 10.9 8.1 7.5 5.1 7.5 8.5 0.0 1.2 0.7 0.0 0.0 0.0 0.0 0.0 0.0 0.0
15.8 15.4 15.3 14.2 13.8 12.7 6.1 3.2 2.4 5.5 8.1 8.1 7.2 6.3 9.2 7.2 6.4 8.4 6.2 3.4 2.6 3.5 4.8 11.0 13.3 12.5 12.2 9.4 7.5 7.7 7.5 7.3 6.4 0.8 3.0 4.5 0.0 0.0 0.0 0.0 0.0 0.0 0.0
16.2 15.2 14.5 14.5 14.0 12.4 5.9 3.8 2.9 7.2 8.3 7.9 6.8 5.6 7.0 9.7 7.9 7.1 8.9 10.6 10.0 8.7 7.5 5.8 7.8 8.2 7.9 7.2 6.6 6.0 6.5 4.4 4.5 2.9 0.6 8.1 0.0 0.0 0.0 0.0 0.0 0.0 0.0
15.1 14.7 14.5 14.5 14.7 14.0 7.3 4.3 4.2 9.0 9.3 8.4 6.4 5.6 4.6 7.3 5.2 2.7 8.0 11.7 11.1 10.1 3.7 1.8 1.4 1.6 0.9 0.0 0.1 4.2 9.1 9.2 10.4 6.7 0.9 4.4 2.0 0.6 0.0 0.0 0.0 0.0 0.0
14.3 13.7 14.5 14.5 13.1 13.1 7.8 4.2 4.4 8.7 11.3 9.8 7.8 6.4 3.3 3.6 2.6 2.6 7.1 9.0 11.3 10.8 9.8 7.9 6.6 4.3 1.5 1.9 0.5 2.7 6.5 10.5 11.3 11.1 2.5 5.5 4.9 2.8 5.0 0.0 0.0 0.0 0.0